sat.trackr.live / text

‹ back to catalog

STARLINK-36276

NORAD 67852 · 2026-034C

PAYLOAD ACTIVE UNKNOWN

§ Identity

Operator
Country
US
Launch date
2026-02-20
Launch site
AFETR
Launch vehicle
Mass (kg)
RCS (m²)

Purposes: comms

External: N2YO · Heavens-Above · Gunter

§ Orbital elements

Epoch: 2026-09-19T21:36:06.741792Z

Period
93.85 min
Inclination
53.1581°
Eccentricity
0.0000360
Mean motion
15.34390919 rev/d
Perigee alt
462.5 km
Apogee alt
463.0 km
Semi-major
6,840.9 km
B*
4.5949e-4
RAAN
20.5250°
Arg perigee
99.0347°
Mean anomaly
261.0696°
Rev number
3,379

§ Raw data

STARLINK-362761 67852U 26034C   26262.90007803  .00015176  00000+0  45949-3 0  99912 67852  53.1581  20.5250 0000360  99.0347 261.0696 15.34390919 33794

JSON: /api/v1/satellites/67852 · /tle

For live sub-satellite position, see the globe view (requires WebGL).

§ Visibility from observer

Set your observer location to see the next 7 days of passes ≥ 10°. The values pass through the URL so the page stays shareable.

No JS? Fill the form by hand. The geolocation button needs JavaScript.